Ken Boothe Sr — WDG3360 — position and weather

sailwx.info

Track history (hours):
 
Tides and Currents Weather Stations Pressure Air Temp Water Temp Dewpoint Dewpoint Depression Visibility Wind Speed Wind Dir Waves Ship Positions

Ken Boothe Sr

Owner: AMERICAN STEAMSHIP COMPANY, WILLIAMSVILLE, NY. More information available from US FCC via Universal Licensing System and Coast Guard Vessel Documentation Center.

Last reported at 2015-May-26 01:33 UTC. Time now 2015-May-26 01:36 UTC.
Position N 45°58' W 085°52'.

Length 30 m; draft 6 m.

Type: Towing. MMSI: 367525230.

Date/timePositionNaut miles runAvg speedWind from/ knotsBaromVisibWave heightAir tempDewpointWater temp
2015-May-26 01:33N 45°58' W 085°52'0 0.2
2015-May-26 00:33N 45°58' W 085°53'4 4.0
2015-May-25 23:33N 45°54' W 085°53'1212.0
2015-May-25 22:33N 45°43' W 086°01'1212.1
2015-May-25 21:32N 45°33' W 086°11'54 1.6
2015-May-24 11:23N 44°41' W 086°33'1111.7
2015-May-24 10:26N 44°51' W 086°27'1011.8
2015-May-24 09:33N 45°01' W 086°22'1211.8
2015-May-24 08:33N 45°12' W 086°16'1211.8
2015-May-24 07:33N 45°23' W 086°11'1211.7
2015-May-24 06:33N 45°34' W 086°04'1211.5
2015-May-24 05:33N 45°45' W 085°58'1111.4
2015-May-24 04:33N 45°55' W 085°53'3 2.7
2015-May-24 03:33N 45°58' W 085°52'0 0.1
2015-May-24 02:33N 45°58' W 085°52'0 0.0
2015-May-24 01:33N 45°58' W 085°52'0 0.0
2015-May-24 00:33N 45°58' W 085°52'0 0.0
2015-May-23 23:33N 45°58' W 085°52'0 0.0
2015-May-23 22:33N 45°58' W 085°52'0 0.0
2015-May-23 21:33N 45°58' W 085°52'0 0.0
2015-May-23 20:33N 45°58' W 085°52'0 0.0
2015-May-23 19:33N 45°58' W 085°52'0 0.0
2015-May-23 18:33N 45°58' W 085°52'0 0.0
2015-May-23 17:33N 45°58' W 085°52'0 0.0
2015-May-23 16:33N 45°58' W 085°52'0 0.0
2015-May-23 15:33N 45°58' W 085°52'0 0.0
2015-May-23 14:33N 45°58' W 085°52'0 0.0
2015-May-23 13:33N 45°58' W 085°52'0 0.0
2015-May-23 12:33N 45°58' W 085°52'0 0.0
2015-May-23 11:33N 45°58' W 085°52'0 0.0
2015-May-23 10:33N 45°58' W 085°52'1 0.9
2015-May-23 09:33N 45°57' W 085°53'4 4.2
2015-May-23 08:33N 45°53' W 085°54'1111.5
2015-May-23 07:33N 45°42' W 085°60'1212.1
2015-May-23 06:33N 45°32' W 086°08'1212.2
2015-May-23 05:33N 45°22' W 086°18'  
2015-May-21 01:06N 44°44' W 086°30'611.7
2015-May-21 00:33N 44°50' W 086°27'1211.6
2015-May-20 23:33N 45°01' W 086°23'1211.6
2015-May-20 22:33N 45°12' W 086°18'1211.6
2015-May-20 21:33N 45°24' W 086°14'1211.6
2015-May-20 20:33N 45°35' W 086°09'1110.7
2015-May-20 19:33N 45°44' W 086°00'1211.6
2015-May-20 18:33N 45°49' W 085°45'1111.4
2015-May-20 17:33N 45°54' W 085°30'1211.6
2015-May-20 16:33N 45°52' W 085°14'1211.8
2015-May-20 15:32N 45°51' W 084°57'1111.7
2015-May-20 14:33N 45°48' W 084°41'1211.6
2015-May-20 13:33N 45°42' W 084°27'1111.0
2015-May-20 12:33N 45°40' W 084°11'1111.4
2015-May-20 11:33N 45°35' W 083°57'  
Track history (hours):
 
Tides and Currents Weather Stations Pressure Air Temp Water Temp Dewpoint Dewpoint Depression Visibility Wind Speed Wind Dir Waves Ship Positions

Ken Boothe Sr

Owner: AMERICAN STEAMSHIP COMPANY, WILLIAMSVILLE, NY. More information available from US FCC via Universal Licensing System and Coast Guard Vessel Documentation Center.

Last reported at 2015-May-26 01:33 UTC. Time now 2015-May-26 01:36 UTC.
Position N 45°58' W 085°52'.

Length 30 m; draft 6 m.

Type: Towing. MMSI: 367525230.

Date/timePositionNaut miles runAvg speedWind from/ knotsBaromVisibWave heightAir tempDewpointWater temp
2015-May-26 01:33N 45°58' W 085°52'0 0.2
2015-May-26 00:33N 45°58' W 085°53'4 4.0
2015-May-25 23:33N 45°54' W 085°53'1212.0
2015-May-25 22:33N 45°43' W 086°01'1212.1
2015-May-25 21:32N 45°33' W 086°11'54 1.6
2015-May-24 11:23N 44°41' W 086°33'1111.7
2015-May-24 10:26N 44°51' W 086°27'1011.8
2015-May-24 09:33N 45°01' W 086°22'1211.8
2015-May-24 08:33N 45°12' W 086°16'1211.8
2015-May-24 07:33N 45°23' W 086°11'1211.7
2015-May-24 06:33N 45°34' W 086°04'1211.5
2015-May-24 05:33N 45°45' W 085°58'1111.4
2015-May-24 04:33N 45°55' W 085°53'3 2.7
2015-May-24 03:33N 45°58' W 085°52'0 0.1
2015-May-24 02:33N 45°58' W 085°52'0 0.0
2015-May-24 01:33N 45°58' W 085°52'0 0.0
2015-May-24 00:33N 45°58' W 085°52'0 0.0
2015-May-23 23:33N 45°58' W 085°52'0 0.0
2015-May-23 22:33N 45°58' W 085°52'0 0.0
2015-May-23 21:33N 45°58' W 085°52'0 0.0
2015-May-23 20:33N 45°58' W 085°52'0 0.0
2015-May-23 19:33N 45°58' W 085°52'0 0.0
2015-May-23 18:33N 45°58' W 085°52'0 0.0
2015-May-23 17:33N 45°58' W 085°52'0 0.0
2015-May-23 16:33N 45°58' W 085°52'0 0.0
2015-May-23 15:33N 45°58' W 085°52'0 0.0
2015-May-23 14:33N 45°58' W 085°52'0 0.0
2015-May-23 13:33N 45°58' W 085°52'0 0.0
2015-May-23 12:33N 45°58' W 085°52'0 0.0
2015-May-23 11:33N 45°58' W 085°52'0 0.0
2015-May-23 10:33N 45°58' W 085°52'1 0.9
2015-May-23 09:33N 45°57' W 085°53'4 4.2
2015-May-23 08:33N 45°53' W 085°54'1111.5
2015-May-23 07:33N 45°42' W 085°60'1212.1
2015-May-23 06:33N 45°32' W 086°08'1212.2
2015-May-23 05:33N 45°22' W 086°18'  
2015-May-21 01:06N 44°44' W 086°30'611.7
2015-May-21 00:33N 44°50' W 086°27'1211.6
2015-May-20 23:33N 45°01' W 086°23'1211.6
2015-May-20 22:33N 45°12' W 086°18'1211.6
2015-May-20 21:33N 45°24' W 086°14'1211.6
2015-May-20 20:33N 45°35' W 086°09'1110.7
2015-May-20 19:33N 45°44' W 086°00'1211.6
2015-May-20 18:33N 45°49' W 085°45'1111.4
2015-May-20 17:33N 45°54' W 085°30'1211.6
2015-May-20 16:33N 45°52' W 085°14'1211.8
2015-May-20 15:32N 45°51' W 084°57'1111.7
2015-May-20 14:33N 45°48' W 084°41'1211.6
2015-May-20 13:33N 45°42' W 084°27'1111.0
2015-May-20 12:33N 45°40' W 084°11'1111.4
2015-May-20 11:33N 45°35' W 083°57'  

Dump ship's entire track history